EDT,Max TemperatureF,Mean TemperatureF,Min TemperatureF,Max Dew PointF,MeanDew PointF,Min DewpointF,Max Humidity, Mean Humidity, Min Humidity, Max Sea Level PressureIn, Mean Sea Level PressureIn, Min Sea Level PressureIn, Max VisibilityMiles, Mean VisibilityMiles, Min VisibilityMiles, Max Wind SpeedMPH, Mean Wind SpeedMPH, Max Gust SpeedMPH,PrecipitationIn, CloudCover, Events, WindDirDegrees
2012-10-1,66,58,51,54,52,49,94,79,59,29.94,29.82,29.74,10,9,5,20,10,26,0.12,6,Rain,266
2012-10-2,64,58,51,59,54,49,93,85,75,29.99,29.95,29.92,10,10,9,5,2,,0.02,7,Rain,94
2012-10-3,69,64,60,64,60,57,100,92,78,30.11,30.04,29.96,10,5,0,5,1,,0.01,8,Fog-Rain,147
2012-10-4,73,66,57,63,60,52,100,88,51,30.16,30.11,30.04,10,7,0,7,1,,0.00,6,Fog,241
2012-10-5,73,61,50,60,55,49,97,82,61,30.03,29.96,29.87,10,9,6,12,4,,0.01,5,Rain,219
2012-10-6,57,52,46,54,47,34,96,85,52,30.00,29.85,29.78,10,6,1,20,7,26,0.79,8,Rain,284
2012-10-7,52,48,44,45,42,37,93,84,62,30.10,30.05,30.00,10,8,2,12,6,,0.39,8,Rain,226
2012-10-8,55,46,37,43,38,32,96,79,42,30.25,30.19,30.09,10,9,6,9,5,,0.07,4,Rain,197
2012-10-9,60,47,35,43,39,33,93,76,53,30.24,30.15,30.01,10,10,10,6,2,,0.00,2,,124
2012-10-10,59,50,42,47,42,33,93,76,55,30.00,29.88,29.76,10,9,3,18,7,33,0.24,4,Rain,216
2012-10-11,52,46,39,39,36,30,89,74,43,30.17,30.05,29.93,10,9,3,20,12,28,0.32,7,Rain,246
2012-10-12,52,41,30,44,34,22,92,74,42,30.44,30.22,30.01,10,9,4,17,9,24,0.29,7,Rain,299
2012-10-13,51,38,26,38,27,22,92,68,33,30.48,30.37,30.10,10,10,8,8,2,,0.05,2,Rain,156
2012-10-14,68,56,43,59,50,41,96,85,59,30.04,29.90,29.69,10,7,2,17,6,25,0.83,6,Rain,146
2012-10-15,66,57,48,54,47,36,82,68,50,29.75,29.65,29.55,10,10,10,20,10,31,0.00,7,,255
2012-10-16,50,42,37,43,36,33,93,73,61,29.93,29.85,29.76,10,10,6,20,12,30,0.06,7,Rain,302
2012-10-17,64,50,36,43,39,34,93,70,44,29.96,29.90,29.83,10,10,6,9,2,,0.00,1,,129
2012-10-18,68,58,50,47,44,42,77,61,45,29.87,29.84,29.79,10,10,9,18,7,29,0.00,1,,141
2012-10-19,64,56,48,57,53,48,100,92,75,29.91,29.71,29.60,10,6,0,18,5,23,0.59,6,Fog-Rain,99
2012-10-20,59,50,44,55,47,39,100,85,51,29.75,29.67,29.60,10,6,0,13,3,20,0.01,5,Fog-Rain,216
2012-10-21,59,52,46,46,44,41,89,75,57,30.04,29.90,29.76,10,10,10,21,12,29,0.01,6,Rain,254
2012-10-22,60,52,43,47,44,41,93,81,55,30.10,30.08,30.04,10,10,6,13,6,21,0.00,3,,255
2012-10-23,53,46,39,50,47,39,97,90,86,30.13,30.09,30.05,10,8,3,7,2,,0.11,7,Rain,62
2012-10-24,55,52,51,49,47,44,89,82,74,30.15,30.12,30.08,10,10,8,7,3,,0.01,8,Rain,114
2012-10-25,73,62,51,58,52,46,87,76,57,30.14,30.11,30.05,10,10,9,9,5,,0.00,3,,127
2012-10-26,73,64,55,56,53,48,87,72,53,30.12,30.08,30.03,10,10,7,12,6,20,0.00,3,,158
2012-10-27,61,54,48,52,50,46,93,82,72,30.11,30.02,29.95,10,10,6,14,4,20,0.00,8,Rain,303
2012-10-28,48,46,44,46,44,42,93,91,87,30.03,29.97,29.86,10,8,3,13,8,17,0.06,8,Rain,1
2012-10-29,57,50,46,50,47,43,93,86,74,29.84,29.50,29.08,10,9,2,30,15,52,0.14,8,Rain,15
2012-10-30,60,52,44,54,47,42,94,83,64,29.44,29.30,29.09,10,9,2,23,11,32,0.25,7,Rain,130
2012-10-31,46,44,41,42,39,36,97,82,68,29.48,29.45,29.42,10,10,7,10,3,,0.13,8,Rain,175